Flag for Canada Weather past 2 weeks in Miramichi, New Brunswick, Canada

Now
52 °F

Passing clouds.


Feels Like: 46 °F
Forecast: 41 / 58 °F
Wind: 21 mph from Northwest

Location: Bathurst Airport

Current Time: May 6, 2015 at 1:41:38 PM

Latest Report: May 6, 2015 at 1:00 PM


Visibility: 15 mi

Pressure: 30.04 "Hg

Humidity: 17%

Dew point: 9 °F

Location of MiramichiLocation

Historic Weather in Miramichi — Graph

°F

Miramichi temperature yesterday

Maximum temperature yesterday: 63 °F (at 2:00 AM)
Minimum temperature yesterday: 46 °F (at 10:00 PM)
Average temperature yesterday: 56 °F

Past Weeks' High & Low Weather Summary

 TemperatureHumidityPressure
High79 °F (May 4, 5:00 PM)100% (Apr 21, 10:00 PM)30.11 "Hg (Apr 21, 10:00 PM)
Low27 °F (May 2, 5:00 AM)22% (May 6, 12:00 PM)29.52 "Hg (Apr 28, 3:00 PM)
Average39 °F82%29.81 "Hg
* Reported Apr 21 12:00 Noon — May 6 12:00 Noon, Miramichi, Weather by CustomWeather, © 2015

Note: Actual official high and low records may vary slightly from our data, if they occured in-between our weather recording intervals... More about our weather records

Advertising

Miramichi weather history for previous 24 hours

 ConditionsComfort  
Time TempWeatherWind HumidityBarometerVisibility
12:00 PM
Wed, May 6
50 °FPassing clouds.20 mph22%30.05 "Hg15 mi
11:00 AM50 °FPassing clouds.8 mph25%30.06 "Hg15 mi
10:00 AM46 °FPassing clouds.14 mph34%30.07 "Hg15 mi
9:00 AM45 °FPassing clouds.17 mph39%30.07 "Hg15 mi
8:00 AM45 °FPassing clouds.20 mph39%30.06 "Hg15 mi
7:00 AM43 °FPassing clouds.14 mph53%30.04 "Hg15 mi
6:00 AM37 °FPassing clouds.9 mph70%30.06 "Hg15 mi
5:00 AM39 °FPassing clouds.8 mph65%30.08 "Hg15 mi
4:00 AM41 °FClear.8 mph61%30.09 "Hg15 mi
3:00 AM43 °FClear.10 mph61%30.09 "Hg15 mi
2:00 AM45 °FPassing clouds.10 mph61%30.08 "Hg15 mi
1:00 AM45 °FPassing clouds.9 mph61%30.08 "Hg15 mi
12:00 AM46 °FPassing clouds.12 mph57%30.06 "Hg15 mi
11:00 PM
Tue, May 5
46 °FPassing clouds.9 mph53%30.05 "Hg15 mi
10:00 PM46 °FPassing clouds.8 mph62%30.04 "Hg15 mi
9:46 PM48 °FPassing clouds.14 mph54%30.05 "Hg15 mi
9:00 PM52 °FPartly sunny.13 mph41%30.03 "Hg15 mi
8:00 PM55 °FScattered clouds.9 mph31%30.00 "Hg15 mi
7:00 PM57 °FPassing clouds.14 mph27%30.00 "Hg15 mi
6:00 PM59 °FScattered clouds.16 mph27%30.00 "Hg15 mi
5:00 PM59 °FScattered clouds.17 mph27%29.98 "Hg15 mi
4:00 PM59 °FPassing clouds.17 mph27%29.97 "Hg15 mi
3:00 PM61 °FPassing clouds.16 mph27%29.97 "Hg15 mi
2:00 PM59 °FPassing clouds.14 mph31%29.96 "Hg15 mi
1:00 PM57 °FScattered clouds.16 mph36%29.97 "Hg15 mi
Weather by CustomWeather, © 2015

See weather overviewHow to use our weather pages